Weather History for Boise, ID

Change the Weather History Date:

Monday, April 1, 2013

  Actual Average Record
Temperature  
Mean Temperature 57 °F 48 °F  
Max Temperature 69 °F 59 °F 82 °F (1966)
Min Temperature 44 °F 37 °F 11 °F (1936)
Degree Days  
Heating Degree Days 8 17  
Month to date heating degree days 8 17  
Since 1 July heating degree days 4715 4812  
Cooling Degree Days 0 0  
Month to date cooling degree days 0 0  
Year to date cooling degree days 0 0  
Growing Degree Days 6 (Base 50)    
Moisture  
Dew Point 37 °F    
Average Humidity 50    
Maximum Humidity 71    
Minimum Humidity 28    
Precipitation  
Precipitation 0.00 in 0.04 in 0.76 in (1906)
Month to date precipitation 0.00 0.04  
Year to date precipitation 2.20 3.66  
Snow  
Snow 0.00 in 0.00 in 5.70 in (1906)
Month to date snowfall 0.0 0.0  
Since 1 July snowfall 16.0 18.9  
Snow Depth 0.00 in    
Sea Level Pressure  
Sea Level Pressure 29.89 in    
Wind  
Wind Speed 7 mph (NNW)    
Max Wind Speed 15 mph    
Max Gust Speed 21 mph    
Visibility 10 miles    
Events      
T = Trace of Precipitation, MM = Missing Value Source: NWS Daily Summary

Daily Weather History Graph

Daily Weather History Graph

Search for Another Location

Airport:

Trip Planner

Search our weather history database for the weather conditions in past years. The results will help you decide how hot, cold, wet, or windy it might be!

Date:

Astronomy

Apr. 01, 2013 Rise Set
Actual Time 7:26 AM MDT 8:12 PM MDT
Civil Twilight 6:57 AM MDT 8:41 PM MDT
Nautical Twilight 6:22 AM MDT 9:15 PM MDT
Astronomical Twilight 5:47 AM MDT 9:51 PM MDT
Moon 1:32 AM MDT (4/1) 11:09 AM MDT (4/1)
Length of Visible Light 13h 44m
Length of Day
12h 46m
Waning Gibbous, 66% of the Moon is Illuminated
Apr 1
Waning Gibbous
Apr 2
Last Quarter
Apr 10
New
Apr 18
First Quarter
Apr 25
Full

Hourly Weather History & Observations

Time (MDT) Temp. Windchill Dew Point Humidity Pressure Visibility Wind Dir Wind Speed Gust Speed Precip Events Conditions
12:53 AM 53.1 °F - 35.1 °F 50% 29.86 in 10.0 mi North 3.5 mph - N/A   Clear
1:53 AM 53.1 °F - 39.0 °F 59% 29.86 in 10.0 mi North 6.9 mph - N/A   Clear
2:53 AM 54.0 °F - 39.9 °F 59% 29.85 in 10.0 mi North 9.2 mph - N/A   Clear
3:53 AM 53.1 °F - 39.9 °F 61% 29.86 in 10.0 mi NNW 4.6 mph - N/A   Clear
4:53 AM 46.0 °F 44.8 °F 37.0 °F 71% 29.87 in 10.0 mi SE 3.5 mph - N/A   Clear
5:53 AM 46.9 °F - 34.0 °F 61% 29.87 in 10.0 mi ESE 4.6 mph - N/A   Clear
6:53 AM 45.0 °F 42.6 °F 33.1 °F 63% 29.88 in 10.0 mi SE 4.6 mph - N/A   Clear
7:53 AM 46.0 °F 43.1 °F 34.0 °F 63% 29.91 in 10.0 mi SE 5.8 mph - N/A   Scattered Clouds
8:53 AM 46.9 °F - 34.0 °F 61% 29.92 in 10.0 mi ESE 5.8 mph - N/A   Clear
9:53 AM 53.1 °F - 35.1 °F 50% 29.93 in 10.0 mi ESE 3.5 mph - N/A   Scattered Clouds
10:53 AM 57.9 °F - 39.9 °F 51% 29.94 in 10.0 mi NNW 6.9 mph - N/A   Clear
11:53 AM 60.1 °F - 41.0 °F 49% 29.93 in 10.0 mi NW 10.4 mph - N/A   Clear
12:53 PM 63.0 °F - 41.0 °F 45% 29.94 in 10.0 mi NW 11.5 mph - N/A   Clear
1:53 PM 63.0 °F - 39.9 °F 43% 29.92 in 10.0 mi WNW 10.4 mph - N/A   Partly Cloudy
2:53 PM 64.0 °F - 39.9 °F 41% 29.91 in 10.0 mi NW 9.2 mph - N/A   Partly Cloudy
3:53 PM 64.9 °F - 39.0 °F 39% 29.89 in 10.0 mi West 9.2 mph - N/A   Clear
4:53 PM 68.0 °F - 37.9 °F 33% 29.88 in 10.0 mi NW 13.8 mph - N/A   Partly Cloudy
5:53 PM 69.1 °F - 35.1 °F 29% 29.87 in 10.0 mi NW 10.4 mph - N/A   Clear
6:53 PM 66.0 °F - 34.0 °F 30% 29.87 in 10.0 mi NW 9.2 mph - N/A   Clear
7:53 PM 66.0 °F - 33.1 °F 29% 29.88 in 10.0 mi NW 10.4 mph - N/A   Clear
8:53 PM 63.0 °F - 34.0 °F 34% 29.89 in 10.0 mi NNW 6.9 mph - N/A   Clear
9:53 PM 61.0 °F - 35.1 °F 38% 29.90 in 10.0 mi WNW 5.8 mph - N/A   Clear
10:53 PM 59.0 °F - 36.0 °F 42% 29.91 in 10.0 mi NW 6.9 mph - N/A   Clear
11:53 PM 57.0 °F - 39.0 °F 51% 29.92 in 10.0 mi NW 3.5 mph - N/A   Clear